Year,Month,Day,Hour,Minute,Value (Times are PST for temperature in C)
2016,05,25,00,00,12.40
2016,05,25,00,01,12.40
2016,05,25,00,02,12.40
2016,05,25,00,03,12.30
2016,05,25,00,04,12.30
2016,05,25,00,05,12.30
2016,05,25,00,06,12.30
2016,05,25,00,07,12.30
2016,05,25,00,08,12.20
2016,05,25,00,09,12.20
2016,05,25,00,10,12.20
2016,05,25,00,11,12.20
2016,05,25,00,12,12.20
2016,05,25,00,13,12.10
2016,05,25,00,14,12.10
2016,05,25,00,15,12.10
2016,05,25,00,16,12.10
2016,05,25,00,17,12.10
2016,05,25,00,18,12.10
2016,05,25,00,19,12.10
2016,05,25,00,20,12.10
2016,05,25,00,21,12.00
2016,05,25,00,22,12.00
2016,05,25,00,23,12.00
2016,05,25,00,24,12.00
2016,05,25,00,25,12.00
2016,05,25,00,26,12.00
2016,05,25,00,27,12.00
2016,05,25,00,28,12.00
2016,05,25,00,29,12.00
2016,05,25,00,30,11.90
2016,05,25,00,31,11.90
2016,05,25,00,32,11.90
2016,05,25,00,33,11.90
2016,05,25,00,34,12.00
2016,05,25,00,35,11.90
2016,05,25,00,36,12.00
2016,05,25,00,37,11.90
2016,05,25,00,38,11.90
2016,05,25,00,39,11.90
2016,05,25,00,40,11.90
2016,05,25,00,41,11.90
2016,05,25,00,42,11.90
2016,05,25,00,43,11.90
2016,05,25,00,44,11.90
2016,05,25,00,45,11.90
2016,05,25,00,46,11.90
2016,05,25,00,47,11.80
2016,05,25,00,48,11.80
2016,05,25,00,49,11.80
2016,05,25,00,50,11.80
2016,05,25,00,51,11.80
2016,05,25,00,52,11.80
2016,05,25,00,53,11.80
2016,05,25,00,54,11.70
2016,05,25,00,55,11.70
2016,05,25,00,56,11.70
2016,05,25,00,57,11.60
2016,05,25,00,58,11.60
2016,05,25,00,59,11.60
2016,05,25,01,00,11.60
2016,05,25,01,01,11.50
2016,05,25,01,02,11.50
2016,05,25,01,03,11.50
2016,05,25,01,04,11.40
2016,05,25,01,05,11.40
2016,05,25,01,06,11.40
2016,05,25,01,07,11.40
2016,05,25,01,08,11.40
2016,05,25,01,09,11.30
2016,05,25,01,10,11.30
2016,05,25,01,11,11.30
2016,05,25,01,12,11.30
2016,05,25,01,13,11.30
2016,05,25,01,14,11.30
2016,05,25,01,15,11.30
2016,05,25,01,16,11.20
2016,05,25,01,17,11.20
2016,05,25,01,18,11.20
2016,05,25,01,19,11.20
2016,05,25,01,20,11.20
2016,05,25,01,21,11.10
2016,05,25,01,22,11.10
2016,05,25,01,23,11.10
2016,05,25,01,24,11.10
2016,05,25,01,25,11.10
2016,05,25,01,26,11.00
2016,05,25,01,27,11.00
2016,05,25,01,28,11.00
2016,05,25,01,29,11.00
2016,05,25,01,30,10.90
2016,05,25,01,31,10.90
2016,05,25,01,32,10.90
2016,05,25,01,33,10.90
2016,05,25,01,34,10.90
2016,05,25,01,35,10.80
2016,05,25,01,36,10.80
2016,05,25,01,37,10.80
2016,05,25,01,38,10.70
2016,05,25,01,39,10.70
2016,05,25,01,40,10.70
2016,05,25,01,41,10.70
2016,05,25,01,42,10.70
2016,05,25,01,43,10.70
2016,05,25,01,44,10.60
2016,05,25,01,45,10.60
2016,05,25,01,46,10.60
2016,05,25,01,47,10.60
2016,05,25,01,48,10.60
2016,05,25,01,49,10.60
2016,05,25,01,50,10.50
2016,05,25,01,51,10.50
2016,05,25,01,52,10.50
2016,05,25,01,53,10.50
2016,05,25,01,54,10.40
2016,05,25,01,55,10.40
2016,05,25,01,56,10.40
2016,05,25,01,57,10.40
2016,05,25,01,58,10.40
2016,05,25,01,59,10.40
2016,05,25,02,00,10.40
2016,05,25,02,01,10.30
2016,05,25,02,02,10.30
2016,05,25,02,03,10.30
2016,05,25,02,04,10.30
2016,05,25,02,05,10.30
2016,05,25,02,06,10.30
2016,05,25,02,07,10.30
2016,05,25,02,08,10.30
2016,05,25,02,09,10.30
2016,05,25,02,10,10.30
2016,05,25,02,11,10.30
2016,05,25,02,12,10.30
2016,05,25,02,13,10.30
2016,05,25,02,14,10.30
2016,05,25,02,15,10.30
2016,05,25,02,16,10.30
2016,05,25,02,17,10.30
2016,05,25,02,18,10.30
2016,05,25,02,19,10.30
2016,05,25,02,20,10.30
2016,05,25,02,21,10.30
2016,05,25,02,22,10.30
2016,05,25,02,23,10.30
2016,05,25,02,24,10.30
2016,05,25,02,25,10.40
2016,05,25,02,26,10.40
2016,05,25,02,27,10.50
2016,05,25,02,28,10.50
2016,05,25,02,29,10.60
2016,05,25,02,30,10.60
2016,05,25,02,31,10.70
2016,05,25,02,32,10.70
2016,05,25,02,33,10.70
2016,05,25,02,34,10.70
2016,05,25,02,35,10.70
2016,05,25,02,36,10.70
2016,05,25,02,37,10.70
2016,05,25,02,38,10.70
2016,05,25,02,39,10.70
2016,05,25,02,40,10.70
2016,05,25,02,41,10.70
2016,05,25,02,42,10.80
2016,05,25,02,43,10.80
2016,05,25,02,44,10.80
2016,05,25,02,45,10.80
2016,05,25,02,46,10.80
2016,05,25,02,47,10.80
2016,05,25,02,48,10.80
2016,05,25,02,49,10.80
2016,05,25,02,50,10.80
2016,05,25,02,51,10.80
2016,05,25,02,52,10.80
2016,05,25,02,53,10.80
2016,05,25,02,54,10.80
2016,05,25,02,55,10.80
2016,05,25,02,56,10.80
2016,05,25,02,57,10.90
2016,05,25,02,58,10.90
2016,05,25,02,59,10.90
2016,05,25,03,00,10.90
2016,05,25,03,01,10.90
2016,05,25,03,02,10.90
2016,05,25,03,03,10.90
2016,05,25,03,04,10.90
2016,05,25,03,05,10.90
2016,05,25,03,06,10.90
2016,05,25,03,07,10.90
2016,05,25,03,08,11.00
2016,05,25,03,09,11.00
2016,05,25,03,10,11.00
2016,05,25,03,11,11.00
2016,05,25,03,12,11.00
2016,05,25,03,13,11.00
2016,05,25,03,14,11.00
2016,05,25,03,15,11.00
2016,05,25,03,16,11.00
2016,05,25,03,17,11.00
2016,05,25,03,18,11.00
2016,05,25,03,19,11.00
2016,05,25,03,20,11.00
2016,05,25,03,21,11.00
2016,05,25,03,22,11.00
2016,05,25,03,23,11.00
2016,05,25,03,24,11.00
2016,05,25,03,25,11.00
2016,05,25,03,26,11.00
2016,05,25,03,27,11.00
2016,05,25,03,28,11.00
2016,05,25,03,29,10.90
2016,05,25,03,30,10.90
2016,05,25,03,31,10.90
2016,05,25,03,32,10.90
2016,05,25,03,33,10.90
2016,05,25,03,34,10.90
2016,05,25,03,35,10.90
2016,05,25,03,36,10.90
2016,05,25,03,37,10.80
2016,05,25,03,38,10.80
2016,05,25,03,39,10.80
2016,05,25,03,40,10.80
2016,05,25,03,41,10.80
2016,05,25,03,42,10.80
2016,05,25,03,43,10.80
2016,05,25,03,44,10.70
2016,05,25,03,45,10.70
2016,05,25,03,46,10.70
2016,05,25,03,47,10.70
2016,05,25,03,48,10.70
2016,05,25,03,49,10.70
2016,05,25,03,50,10.60
2016,05,25,03,51,10.60
2016,05,25,03,52,10.60
2016,05,25,03,53,10.60
2016,05,25,03,54,10.60
2016,05,25,03,55,10.60
2016,05,25,03,56,10.60
2016,05,25,03,57,10.60
2016,05,25,03,58,10.60
2016,05,25,03,59,10.50
2016,05,25,04,00,10.50
2016,05,25,04,01,10.50
2016,05,25,04,02,10.50
2016,05,25,04,03,10.50
2016,05,25,04,04,10.40
2016,05,25,04,05,10.40
2016,05,25,04,06,10.40
2016,05,25,04,07,10.40
2016,05,25,04,08,10.40
2016,05,25,04,09,10.30
2016,05,25,04,10,10.30
2016,05,25,04,11,10.30
2016,05,25,04,12,10.30
2016,05,25,04,13,10.30
2016,05,25,04,14,10.30
2016,05,25,04,15,10.20
2016,05,25,04,16,10.20
2016,05,25,04,17,10.20
2016,05,25,04,18,10.20
2016,05,25,04,19,10.10
2016,05,25,04,20,10.10
2016,05,25,04,21,10.10
2016,05,25,04,22,10.10
2016,05,25,04,23,10.10
2016,05,25,04,24,10.10
2016,05,25,04,25,10.00
2016,05,25,04,26,10.00
2016,05,25,04,27,10.00
2016,05,25,04,28,10.00
2016,05,25,04,29,10.00
2016,05,25,04,30,10.00
2016,05,25,04,31,9.90
2016,05,25,04,32,9.90
2016,05,25,04,33,9.90
2016,05,25,04,34,9.90
2016,05,25,04,35,9.90
2016,05,25,04,36,9.90
2016,05,25,04,37,9.90
2016,05,25,04,38,9.90
2016,05,25,04,39,9.90
2016,05,25,04,40,9.90
2016,05,25,04,41,9.90
2016,05,25,04,42,9.90
2016,05,25,04,43,9.90
2016,05,25,04,44,9.90
2016,05,25,04,45,9.90
2016,05,25,04,46,9.90
2016,05,25,04,47,9.90
2016,05,25,04,48,9.90
2016,05,25,04,49,9.90
2016,05,25,04,50,9.90
2016,05,25,04,51,9.90
2016,05,25,04,52,9.90
2016,05,25,04,53,9.90
2016,05,25,04,54,9.90
2016,05,25,04,55,9.90
2016,05,25,04,56,9.90
2016,05,25,04,57,9.90
2016,05,25,04,58,9.90
2016,05,25,04,59,9.90
2016,05,25,05,00,9.90
2016,05,25,05,01,9.90
2016,05,25,05,02,9.90
2016,05,25,05,03,10.00
2016,05,25,05,04,10.00
2016,05,25,05,05,10.00
2016,05,25,05,06,10.00
2016,05,25,05,07,10.10
2016,05,25,05,08,10.10
2016,05,25,05,09,10.10
2016,05,25,05,10,10.10
2016,05,25,05,11,10.10
2016,05,25,05,12,10.10
2016,05,25,05,13,10.10
2016,05,25,05,14,10.20
2016,05,25,05,15,10.20
2016,05,25,05,16,10.20
2016,05,25,05,17,10.20
2016,05,25,05,18,10.20
2016,05,25,05,19,10.20
2016,05,25,05,20,10.20
2016,05,25,05,21,10.20
2016,05,25,05,22,10.20
2016,05,25,05,23,10.10
2016,05,25,05,24,10.10
2016,05,25,05,25,10.10
2016,05,25,05,26,10.10
2016,05,25,05,27,10.10
2016,05,25,05,28,10.10
2016,05,25,05,29,10.10
2016,05,25,05,30,10.10
2016,05,25,05,31,10.10
2016,05,25,05,32,10.10
2016,05,25,05,33,10.10
2016,05,25,05,34,10.00
2016,05,25,05,35,10.00
2016,05,25,05,36,10.00
2016,05,25,05,37,10.00
2016,05,25,05,38,10.00
2016,05,25,05,39,10.00
2016,05,25,05,40,10.00
2016,05,25,05,41,10.00
2016,05,25,05,42,10.00
2016,05,25,05,43,10.00
2016,05,25,05,44,10.00
2016,05,25,05,45,10.00
2016,05,25,05,46,10.00
2016,05,25,05,47,10.00
2016,05,25,05,48,10.00
2016,05,25,05,49,10.00
2016,05,25,05,50,10.10
2016,05,25,05,51,10.10
2016,05,25,05,52,10.10
2016,05,25,05,53,10.10
2016,05,25,05,54,10.10
2016,05,25,05,55,10.10
2016,05,25,05,56,10.10
2016,05,25,05,57,10.10
2016,05,25,05,58,10.10
2016,05,25,05,59,10.10
2016,05,25,06,00,10.20
2016,05,25,06,01,10.20
2016,05,25,06,02,10.20
2016,05,25,06,03,10.20
2016,05,25,06,04,10.20
2016,05,25,06,05,10.20
2016,05,25,06,06,10.20
2016,05,25,06,07,10.20
2016,05,25,06,08,10.30
2016,05,25,06,09,10.30
2016,05,25,06,10,10.30
2016,05,25,06,11,10.30
2016,05,25,06,12,10.30
2016,05,25,06,13,10.30
2016,05,25,06,14,10.30
2016,05,25,06,15,10.30
2016,05,25,06,16,10.40
2016,05,25,06,17,10.40
2016,05,25,06,18,10.40
2016,05,25,06,19,10.50
2016,05,25,06,20,10.50
2016,05,25,06,21,10.60
2016,05,25,06,22,10.60
2016,05,25,06,23,10.60
2016,05,25,06,24,10.60
2016,05,25,06,25,10.60
2016,05,25,06,26,10.60
2016,05,25,06,27,10.60
2016,05,25,06,28,10.60
2016,05,25,06,29,10.60
2016,05,25,06,30,10.70
2016,05,25,06,31,10.70
2016,05,25,06,32,10.70
2016,05,25,06,33,10.70
2016,05,25,06,34,10.70
2016,05,25,06,35,10.80
2016,05,25,06,36,10.80
2016,05,25,06,37,10.80
2016,05,25,06,38,10.90
2016,05,25,06,39,10.90
2016,05,25,06,40,10.90
2016,05,25,06,41,11.00
2016,05,25,06,42,11.00
2016,05,25,06,43,11.10
2016,05,25,06,44,11.10
2016,05,25,06,45,11.10
2016,05,25,06,46,11.10
2016,05,25,06,47,11.20
2016,05,25,06,48,11.10
2016,05,25,06,49,11.20
2016,05,25,06,50,11.20
2016,05,25,06,51,11.20
2016,05,25,06,52,11.20
2016,05,25,06,53,11.20
2016,05,25,06,54,11.10
2016,05,25,06,55,11.10
2016,05,25,06,56,11.10
2016,05,25,06,57,11.10
2016,05,25,06,58,11.10
2016,05,25,06,59,11.10
2016,05,25,07,00,11.10
2016,05,25,07,01,11.10
2016,05,25,07,02,11.10
2016,05,25,07,03,11.10
2016,05,25,07,04,11.10
2016,05,25,07,05,11.00
2016,05,25,07,06,11.00
2016,05,25,07,07,11.00
2016,05,25,07,08,11.00
2016,05,25,07,09,11.00
2016,05,25,07,10,11.00
2016,05,25,07,11,11.00
2016,05,25,07,12,11.00
2016,05,25,07,13,11.00
2016,05,25,07,14,11.10
2016,05,25,07,15,11.10
2016,05,25,07,16,11.10
2016,05,25,07,17,11.20
2016,05,25,07,18,11.20
2016,05,25,07,19,11.30
2016,05,25,07,20,11.30
2016,05,25,07,21,11.30
2016,05,25,07,22,11.40
2016,05,25,07,23,11.40
2016,05,25,07,24,11.40
2016,05,25,07,25,11.40
2016,05,25,07,26,11.40
2016,05,25,07,27,11.50
2016,05,25,07,28,11.50
2016,05,25,07,29,11.50
2016,05,25,07,30,11.50
2016,05,25,07,31,11.60
2016,05,25,07,32,11.60
2016,05,25,07,33,11.60
2016,05,25,07,34,11.60
2016,05,25,07,35,11.60
2016,05,25,07,36,11.60
2016,05,25,07,37,11.70
2016,05,25,07,38,11.70
2016,05,25,07,39,11.70
2016,05,25,07,40,11.70
2016,05,25,07,41,11.80
2016,05,25,07,42,11.80
2016,05,25,07,43,11.80
2016,05,25,07,44,11.80
2016,05,25,07,45,11.80
2016,05,25,07,46,11.80
2016,05,25,07,47,11.90
2016,05,25,07,48,11.90
2016,05,25,07,49,11.90
2016,05,25,07,50,11.90
2016,05,25,07,51,11.90
2016,05,25,07,52,11.90
2016,05,25,07,53,11.90
2016,05,25,07,54,11.90
2016,05,25,07,55,12.00
2016,05,25,07,56,12.00
2016,05,25,07,57,12.00
2016,05,25,07,58,12.00
2016,05,25,07,59,12.00
2016,05,25,08,00,12.00
2016,05,25,08,01,12.00
2016,05,25,08,02,12.00
2016,05,25,08,03,12.00
2016,05,25,08,04,12.10
2016,05,25,08,05,12.10
2016,05,25,08,06,12.10
2016,05,25,08,07,12.20
2016,05,25,08,08,12.30
2016,05,25,08,09,12.30
2016,05,25,08,10,12.40
2016,05,25,08,11,12.40
2016,05,25,08,12,12.50
2016,05,25,08,13,12.50
2016,05,25,08,14,12.50
2016,05,25,08,15,12.60
2016,05,25,08,16,12.60
2016,05,25,08,17,12.60
2016,05,25,08,18,12.70
2016,05,25,08,19,12.70
2016,05,25,08,20,12.70
2016,05,25,08,21,12.80
2016,05,25,08,22,12.80
2016,05,25,08,23,12.80
2016,05,25,08,24,12.80
2016,05,25,08,25,12.80
2016,05,25,08,26,12.80
2016,05,25,08,27,12.80
2016,05,25,08,28,12.80
2016,05,25,08,29,12.80
2016,05,25,08,30,12.80
2016,05,25,08,31,12.80
2016,05,25,08,32,12.80
2016,05,25,08,33,12.80
2016,05,25,08,34,12.80
2016,05,25,08,35,12.80
2016,05,25,08,36,12.80
2016,05,25,08,37,12.90
2016,05,25,08,38,12.90
2016,05,25,08,39,13.00
2016,05,25,08,40,13.00
2016,05,25,08,41,13.00
2016,05,25,08,42,13.00
2016,05,25,08,43,13.00
2016,05,25,08,44,13.10
2016,05,25,08,45,13.10
2016,05,25,08,46,13.10
2016,05,25,08,47,13.10
2016,05,25,08,48,13.10
2016,05,25,08,49,13.00
2016,05,25,08,50,13.00
2016,05,25,08,51,13.00
2016,05,25,08,52,13.00
2016,05,25,08,53,13.00
2016,05,25,08,54,13.00
2016,05,25,08,55,13.10
2016,05,25,08,56,13.10
2016,05,25,08,57,13.10
2016,05,25,08,58,13.20
2016,05,25,08,59,13.20
2016,05,25,09,00,13.30
2016,05,25,09,01,13.30
2016,05,25,09,02,13.30
2016,05,25,09,03,13.40
2016,05,25,09,04,13.50
2016,05,25,09,05,13.50
2016,05,25,09,06,13.60
2016,05,25,09,07,13.70
2016,05,25,09,08,13.70
2016,05,25,09,09,13.70
2016,05,25,09,10,13.70
2016,05,25,09,11,13.80
2016,05,25,09,12,13.80
2016,05,25,09,13,13.80
2016,05,25,09,14,13.80
2016,05,25,09,15,13.80
2016,05,25,09,16,13.80
2016,05,25,09,17,13.80
2016,05,25,09,18,13.90
2016,05,25,09,19,13.90
2016,05,25,09,20,13.90
2016,05,25,09,21,13.90
2016,05,25,09,22,13.90
2016,05,25,09,23,14.00
2016,05,25,09,24,14.00
2016,05,25,09,25,14.00
2016,05,25,09,26,14.00
2016,05,25,09,27,14.10
2016,05,25,09,28,14.10
2016,05,25,09,29,14.10
2016,05,25,09,30,14.20
2016,05,25,09,31,14.20
2016,05,25,09,32,14.20
2016,05,25,09,33,14.20
2016,05,25,09,34,14.20
2016,05,25,09,35,14.20
2016,05,25,09,36,14.30
2016,05,25,09,37,14.30
2016,05,25,09,38,14.30
2016,05,25,09,39,14.30
2016,05,25,09,40,14.30
2016,05,25,09,41,14.30
2016,05,25,09,42,14.40
2016,05,25,09,43,14.50
2016,05,25,09,44,14.50
2016,05,25,09,45,14.50
2016,05,25,09,46,14.50
2016,05,25,09,47,14.40
2016,05,25,09,48,14.30
2016,05,25,09,49,14.30
2016,05,25,09,50,14.30
2016,05,25,09,51,14.30
2016,05,25,09,52,14.30
2016,05,25,09,53,14.40
2016,05,25,09,54,14.40
2016,05,25,09,55,14.40
2016,05,25,09,56,14.40
2016,05,25,09,57,14.40
2016,05,25,09,58,14.40
2016,05,25,09,59,14.50
2016,05,25,10,00,14.50
2016,05,25,10,01,14.60
2016,05,25,10,02,14.60
2016,05,25,10,03,14.60
2016,05,25,10,04,14.60
2016,05,25,10,05,14.60
2016,05,25,10,06,14.60
2016,05,25,10,07,14.60
2016,05,25,10,08,14.60
2016,05,25,10,09,14.70
2016,05,25,10,10,14.70
2016,05,25,10,11,14.80
2016,05,25,10,12,14.80
2016,05,25,10,13,14.80
2016,05,25,10,14,14.80
2016,05,25,10,15,14.90
2016,05,25,10,16,14.90
2016,05,25,10,17,14.80
2016,05,25,10,18,14.80
2016,05,25,10,19,14.80
2016,05,25,10,20,14.70
2016,05,25,10,21,14.70
2016,05,25,10,22,14.70
2016,05,25,10,23,14.70
2016,05,25,10,24,14.70
2016,05,25,10,25,14.70
2016,05,25,10,26,14.70
2016,05,25,10,27,14.70
2016,05,25,10,28,14.70
2016,05,25,10,29,14.70
2016,05,25,10,30,14.80
2016,05,25,10,31,14.90
2016,05,25,10,32,14.90
2016,05,25,10,33,15.00
2016,05,25,10,34,15.00
2016,05,25,10,35,14.90
2016,05,25,10,36,14.90
2016,05,25,10,37,15.00
2016,05,25,10,38,15.00
2016,05,25,10,39,15.10
2016,05,25,10,40,15.10
2016,05,25,10,41,15.20
2016,05,25,10,42,15.20
2016,05,25,10,43,15.20
2016,05,25,10,44,15.20
2016,05,25,10,45,15.30
2016,05,25,10,46,15.40
2016,05,25,10,47,15.40
2016,05,25,10,48,15.40
2016,05,25,10,49,15.50
2016,05,25,10,50,15.50
2016,05,25,10,51,15.60
2016,05,25,10,52,15.50
2016,05,25,10,53,15.60
2016,05,25,10,54,15.60
2016,05,25,10,55,15.60
2016,05,25,10,56,15.60
2016,05,25,10,57,15.70
2016,05,25,10,58,15.70
2016,05,25,10,59,15.80
2016,05,25,11,00,15.90
2016,05,25,11,01,16.00
2016,05,25,11,02,16.10
2016,05,25,11,03,16.10
2016,05,25,11,04,16.10
2016,05,25,11,05,16.10
2016,05,25,11,06,16.10
2016,05,25,11,07,16.20
2016,05,25,11,08,16.20
2016,05,25,11,09,16.30
2016,05,25,11,10,16.40
2016,05,25,11,11,16.40
2016,05,25,11,12,16.50
2016,05,25,11,13,16.50
2016,05,25,11,14,16.50
2016,05,25,11,15,16.50
2016,05,25,11,16,16.40
2016,05,25,11,17,16.30
2016,05,25,11,18,16.30
2016,05,25,11,19,16.30
2016,05,25,11,20,16.30
2016,05,25,11,21,16.40
2016,05,25,11,22,16.50
2016,05,25,11,23,16.50
2016,05,25,11,24,16.60
2016,05,25,11,25,16.70
2016,05,25,11,26,16.70
2016,05,25,11,27,16.80
2016,05,25,11,28,16.90
2016,05,25,11,29,16.90
2016,05,25,11,30,17.00
2016,05,25,11,31,17.00
2016,05,25,11,32,16.90
2016,05,25,11,33,16.80
2016,05,25,11,34,16.70
2016,05,25,11,35,16.70
2016,05,25,11,36,16.80
2016,05,25,11,37,16.80
2016,05,25,11,38,16.80
2016,05,25,11,39,16.80
2016,05,25,11,40,16.90
2016,05,25,11,41,17.00
2016,05,25,11,42,17.10
2016,05,25,11,43,17.20
2016,05,25,11,44,17.20
2016,05,25,11,45,17.20
2016,05,25,11,46,17.10
2016,05,25,11,47,17.00
2016,05,25,11,48,16.90
2016,05,25,11,49,16.80
2016,05,25,11,50,16.80
2016,05,25,11,51,16.80
2016,05,25,11,52,16.80
2016,05,25,11,53,16.80
2016,05,25,11,54,16.80
2016,05,25,11,55,16.90
2016,05,25,11,56,16.90
2016,05,25,11,57,16.90
2016,05,25,11,58,16.90
2016,05,25,11,59,16.90
2016,05,25,12,00,16.80
2016,05,25,12,01,16.90
2016,05,25,12,02,16.90
2016,05,25,12,03,16.90
2016,05,25,12,04,17.00
2016,05,25,12,05,17.00
2016,05,25,12,06,16.90
2016,05,25,12,07,16.80
2016,05,25,12,08,16.70
2016,05,25,12,09,16.70
2016,05,25,12,10,16.60
2016,05,25,12,11,16.60
2016,05,25,12,12,16.70
2016,05,25,12,13,16.70
2016,05,25,12,14,16.80
2016,05,25,12,15,16.80
2016,05,25,12,16,16.80
2016,05,25,12,17,16.70
2016,05,25,12,18,16.70
2016,05,25,12,19,16.70
2016,05,25,12,20,16.80
2016,05,25,12,21,16.80
2016,05,25,12,22,16.70
2016,05,25,12,23,16.60
2016,05,25,12,24,16.60
2016,05,25,12,25,16.70
2016,05,25,12,26,16.80
2016,05,25,12,27,16.70
2016,05,25,12,28,16.60
2016,05,25,12,29,16.50
2016,05,25,12,30,16.60
2016,05,25,12,31,16.70
2016,05,25,12,32,16.80
2016,05,25,12,33,16.80
2016,05,25,12,34,16.80
2016,05,25,12,35,16.70
2016,05,25,12,36,16.70
2016,05,25,12,37,16.70
2016,05,25,12,38,16.80
2016,05,25,12,39,16.80
2016,05,25,12,40,16.60
2016,05,25,12,41,16.50
2016,05,25,12,42,16.30
2016,05,25,12,43,16.30
2016,05,25,12,44,16.20
2016,05,25,12,45,16.30
2016,05,25,12,46,16.40
2016,05,25,12,47,16.60
2016,05,25,12,48,16.70
2016,05,25,12,49,16.80
2016,05,25,12,50,17.00
2016,05,25,12,51,17.10
2016,05,25,12,52,17.20
2016,05,25,12,53,17.30
2016,05,25,12,54,17.30
2016,05,25,12,55,17.30
2016,05,25,12,56,17.30
2016,05,25,12,57,17.30
2016,05,25,12,58,17.20
2016,05,25,12,59,17.20
2016,05,25,13,00,17.10
2016,05,25,13,01,17.10
2016,05,25,13,02,17.10
2016,05,25,13,03,17.20
2016,05,25,13,04,17.20
2016,05,25,13,05,17.20
2016,05,25,13,06,17.20
2016,05,25,13,07,17.20
2016,05,25,13,08,17.20
2016,05,25,13,09,17.20
2016,05,25,13,10,17.30
2016,05,25,13,11,17.30
2016,05,25,13,12,17.20
2016,05,25,13,13,17.20
2016,05,25,13,14,17.20
2016,05,25,13,15,17.20
2016,05,25,13,16,17.20
2016,05,25,13,17,17.20
2016,05,25,13,18,17.20
2016,05,25,13,19,17.20
2016,05,25,13,20,17.30
2016,05,25,13,21,17.30
2016,05,25,13,22,17.40
2016,05,25,13,23,17.50
2016,05,25,13,24,17.60
2016,05,25,13,25,17.70
2016,05,25,13,26,17.70
2016,05,25,13,27,17.70
2016,05,25,13,28,17.60
2016,05,25,13,29,17.60
2016,05,25,13,30,17.50
2016,05,25,13,31,17.40
2016,05,25,13,32,17.30
2016,05,25,13,33,17.30
2016,05,25,13,34,17.40
2016,05,25,13,35,17.50
2016,05,25,13,36,17.60
2016,05,25,13,37,17.70
2016,05,25,13,38,17.80
2016,05,25,13,39,17.80
2016,05,25,13,40,17.90
2016,05,25,13,41,17.90
2016,05,25,13,42,17.90
2016,05,25,13,43,17.80
2016,05,25,13,44,17.70
2016,05,25,13,45,17.60
2016,05,25,13,46,17.50
2016,05,25,13,47,17.50
2016,05,25,13,48,17.40
2016,05,25,13,49,17.40
2016,05,25,13,50,17.30
2016,05,25,13,51,17.30
2016,05,25,13,52,17.20
2016,05,25,13,53,17.20
2016,05,25,13,54,17.20
2016,05,25,13,55,17.10
2016,05,25,13,56,17.00
2016,05,25,13,57,16.90
2016,05,25,13,58,16.80
2016,05,25,13,59,16.80
2016,05,25,14,00,16.70
2016,05,25,14,01,16.80
2016,05,25,14,02,16.80
2016,05,25,14,03,16.80
2016,05,25,14,04,16.90
2016,05,25,14,05,16.90
2016,05,25,14,06,17.00
2016,05,25,14,07,17.10
2016,05,25,14,08,17.20
2016,05,25,14,09,17.20
2016,05,25,14,10,17.30
2016,05,25,14,11,17.30
2016,05,25,14,12,17.20
2016,05,25,14,13,17.20
2016,05,25,14,14,17.10
2016,05,25,14,15,17.10
2016,05,25,14,16,17.10
2016,05,25,14,17,17.20
2016,05,25,14,18,17.30
2016,05,25,14,19,17.40
2016,05,25,14,20,17.50
2016,05,25,14,21,17.60
2016,05,25,14,22,17.70
2016,05,25,14,23,17.70
2016,05,25,14,24,17.80
2016,05,25,14,25,17.80
2016,05,25,14,26,17.80
2016,05,25,14,27,17.80
2016,05,25,14,28,17.70
2016,05,25,14,29,17.70
2016,05,25,14,30,17.70
2016,05,25,14,31,17.70
2016,05,25,14,32,17.70
2016,05,25,14,33,17.70
2016,05,25,14,34,17.70
2016,05,25,14,35,17.70
2016,05,25,14,36,17.70
2016,05,25,14,37,17.70
2016,05,25,14,38,17.70
2016,05,25,14,39,17.70
2016,05,25,14,40,17.70
2016,05,25,14,41,17.80
2016,05,25,14,42,18.00
2016,05,25,14,43,18.10
2016,05,25,14,44,18.20
2016,05,25,14,45,18.20
2016,05,25,14,46,18.20
2016,05,25,14,47,18.20
2016,05,25,14,48,18.20
2016,05,25,14,49,18.20
2016,05,25,14,50,18.20
2016,05,25,14,51,18.20
2016,05,25,14,52,18.20
2016,05,25,14,53,18.10
2016,05,25,14,54,18.10
2016,05,25,14,55,18.10
2016,05,25,14,56,18.10
2016,05,25,14,57,18.10
2016,05,25,14,58,18.10
2016,05,25,14,59,18.00
2016,05,25,15,00,18.00
2016,05,25,15,01,17.90
2016,05,25,15,02,17.80
2016,05,25,15,03,17.70
2016,05,25,15,04,17.70
2016,05,25,15,05,17.70
2016,05,25,15,06,17.70
2016,05,25,15,07,17.70
2016,05,25,15,08,17.70
2016,05,25,15,09,17.70
2016,05,25,15,10,17.70
2016,05,25,15,11,17.80
2016,05,25,15,12,17.80
2016,05,25,15,13,17.80
2016,05,25,15,14,17.80
2016,05,25,15,15,17.80
2016,05,25,15,16,17.80
2016,05,25,15,17,17.80
2016,05,25,15,18,17.80
2016,05,25,15,19,17.80
2016,05,25,15,20,17.80
2016,05,25,15,21,17.80
2016,05,25,15,22,17.80
2016,05,25,15,23,17.80
2016,05,25,15,24,17.80
2016,05,25,15,25,17.80
2016,05,25,15,26,17.80
2016,05,25,15,27,17.80
2016,05,25,15,28,17.80
2016,05,25,15,29,17.80
2016,05,25,15,30,17.80
2016,05,25,15,31,17.90
2016,05,25,15,32,17.90
2016,05,25,15,33,18.00
2016,05,25,15,34,18.00
2016,05,25,15,35,18.10
2016,05,25,15,36,18.10
2016,05,25,15,37,18.10
2016,05,25,15,38,18.20
2016,05,25,15,39,18.20
2016,05,25,15,40,18.20
2016,05,25,15,41,18.30
2016,05,25,15,42,18.30
2016,05,25,15,43,18.40
2016,05,25,15,44,18.40
2016,05,25,15,45,18.40
2016,05,25,15,46,18.40
2016,05,25,15,47,18.50
2016,05,25,15,48,18.50
2016,05,25,15,49,18.50
2016,05,25,15,50,18.60
2016,05,25,15,51,18.50
2016,05,25,15,52,18.50
2016,05,25,15,53,18.50
2016,05,25,15,54,18.50
2016,05,25,15,55,18.50
2016,05,25,15,56,18.60
2016,05,25,15,57,18.60
2016,05,25,15,58,18.60
2016,05,25,15,59,18.60
2016,05,25,16,00,18.60
2016,05,25,16,01,18.60
2016,05,25,16,02,18.70
2016,05,25,16,03,18.80
2016,05,25,16,04,19.00
2016,05,25,16,05,19.20
2016,05,25,16,06,19.30
2016,05,25,16,07,19.30
2016,05,25,16,08,19.40
2016,05,25,16,09,19.40
2016,05,25,16,10,19.40
2016,05,25,16,11,19.40
2016,05,25,16,12,19.40
2016,05,25,16,13,19.30
2016,05,25,16,14,19.30
2016,05,25,16,15,19.30
2016,05,25,16,16,19.30
2016,05,25,16,17,19.20
2016,05,25,16,18,19.20
2016,05,25,16,19,19.20
2016,05,25,16,20,19.20
2016,05,25,16,21,19.20
2016,05,25,16,22,19.20
2016,05,25,16,23,19.10
2016,05,25,16,24,19.00
2016,05,25,16,25,18.90
2016,05,25,16,26,18.80
2016,05,25,16,27,18.80
2016,05,25,16,28,18.70
2016,05,25,16,29,18.70
2016,05,25,16,30,18.60
2016,05,25,16,31,18.60
2016,05,25,16,32,18.60
2016,05,25,16,33,18.70
2016,05,25,16,34,18.70
2016,05,25,16,35,18.70
2016,05,25,16,36,18.70
2016,05,25,16,37,18.70
2016,05,25,16,38,18.70
2016,05,25,16,39,18.70
2016,05,25,16,40,18.70
2016,05,25,16,41,18.70
2016,05,25,16,42,18.60
2016,05,25,16,43,18.60
2016,05,25,16,44,18.60
2016,05,25,16,45,18.60
2016,05,25,16,46,18.60
2016,05,25,16,47,18.70
2016,05,25,16,48,18.70
2016,05,25,16,49,18.70
2016,05,25,16,50,18.80
2016,05,25,16,51,18.80
2016,05,25,16,52,18.80
2016,05,25,16,53,18.80
2016,05,25,16,54,18.80
2016,05,25,16,55,18.90
2016,05,25,16,56,18.90
2016,05,25,16,57,18.90
2016,05,25,16,58,18.90
2016,05,25,16,59,19.00
2016,05,25,17,00,19.00
2016,05,25,17,01,19.10
2016,05,25,17,02,19.20
2016,05,25,17,03,19.20
2016,05,25,17,04,19.20
2016,05,25,17,05,19.20
2016,05,25,17,06,19.20
2016,05,25,17,07,19.20
2016,05,25,17,08,19.20
2016,05,25,17,09,19.20
2016,05,25,17,10,19.20
2016,05,25,17,11,19.20
2016,05,25,17,12,19.20
2016,05,25,17,13,19.20
2016,05,25,17,14,19.20
2016,05,25,17,15,19.20
2016,05,25,17,16,19.30
2016,05,25,17,17,19.30
2016,05,25,17,18,19.30
2016,05,25,17,19,19.40
2016,05,25,17,20,19.50